Regional Weather Roundup
Issued by NWS

Home | Current Version | Previous Version | Text Only | Print | Product List | Glossary Off
Versions: 1 2 3 4 5 6 7 8 9 10 11 12 13 14 15 16 17 18 19 20 21 22 23 24 25 26 27 28 29 30 31 32 33 34 35 36 37 38 39 40 41 42 43 44 45 46 47 48 49 50

000
ASUS43 KMPX 291501
RWRMN
WEATHER ROUNDUP FOR MINNESOTA
NATIONAL WEATHER SERVICE TWIN CITIES/CHANHASSEN MN
1000 AM CDT WED JUL 29 2015


NOTE: "FAIR" INDICATES FEW OR NO CLOUDS BELOW 12,000 FEET WITH NO
SIGNIFICANT WEATHER AND/OR OBSTRUCTIONS TO VISIBILITY. N/A MEANS
CURRENT SKY AND/OR WEATHER CONDITIONS ARE NOT AVAILABLE.

MNZ060>063-068>070-291600-
   Twin Cities Metro

CITY           SKY/WX    TMP DP  RH WIND       PRES   REMARKS
TWIN CITIES    SUNNY     75  50  41 W24G33    29.94S
ST PAUL        SUNNY     75  51  43 W18G36    29.93F
CRYSTAL        SUNNY     75  51  43 SW24G31   29.91F
BLAINE         SUNNY     75  52  43 W18G28    29.92S
LAKEVILLE      SUNNY     72  54  53 W17G25    29.97S
EDEN PRAIRIE   SUNNY     74  52  46 W18G28    29.95S
SOUTH ST PAUL  SUNNY     74  51  43 W16G24    29.94S
LAKE ELMO      FAIR      73  52  46 W23G33    29.94S
$$
MNZ001>005-007-008-013>017-022>024-027-028-291600-
   Northwest Minnesota

CITY           SKY/WX    TMP DP  RH WIND       PRES   REMARKS
BEMIDJI        CLOUDY    62  55  77 W18G26    29.73R
HALLOCK        CLOUDY    68  55  64 W24G31    29.63R
ROSEAU         CLOUDY    64  57  77 W15G25    29.59R
WARROAD        CLOUDY    63  59  88 W18G26    29.57R FOG
THIEF RVR FALL CLOUDY    64  55  72 W22G35    29.69R
CROOKSTON      PTSUNNY   70  55  60 NW33G41   29.73R
FOSSTON        CLOUDY    63  54  72 W18G30    29.75R
DETROIT LAKES  SUNNY     70  54  56 W21G36    29.83R
MOORHEAD       SUNNY     72  54  53 W23G32    29.84R
PARK RAPIDS    CLOUDY    65  52  62 W23G33    29.80R
MAHNOMEN       CLOUDY    65  54  67 W22G29    29.78S
$$
MNZ006-009>011-018-025>026-291600-
   North Central Minnesota

CITY           SKY/WX    TMP DP  RH WIND       PRES   REMARKS
BAUDETTE       CLOUDY    62  57  83 W20G31    29.57R
FLAG ISLAND    CLOUDY    63  57  82 W22G32    29.49R
INTL FALLS     LGT RAIN  62  57  83 SW14G24   29.58R
WASKISH        CLOUDY    64  57  77 SW21G33   29.64R
BIG FORK       PTSUNNY   64  54  68 SW14G28   29.67R
LONGVILLE      CLOUDY    64  54  68 W14G23    29.77R
GRAND RAPIDS   CLOUDY    64  52  63 W13G22    29.73R
CRANE LAKE     CLOUDY    64  55  72 SW10G18   29.62R
ORR            CLOUDY    63  52  67 SW10G20   29.62R
COOK           CLOUDY    63  54  72 SW13G20   29.67R
WALKER         CLOUDY    63  53  69 W20G31    29.74R
$$
MNZ012-019>021-037-291600-
   Northeast Minnesota

CITY           SKY/WX    TMP DP  RH WIND       PRES   REMARKS
DULUTH         CLOUDY    67  52  58 W21G38    29.74S
ELY            CLOUDY    63  52  67 SW12G17   29.65S
HIBBING        CLOUDY    64  52  64 SW8G17    29.70S
EVELETH        CLOUDY    63  50  63 SW16G24   29.70S
DULUTH HARBOR  CLOUDY    70  55  60 SW20G29   29.73S
TWO HARBORS    CLOUDY    72  57  60 SW17G29   29.69S
SILVER BAY     CLOUDY    70  52  52 SW15G23   29.67R
GRAND MARAIS     N/A     57  51  80 W9        29.64S
G MARAIS ARPRT   N/A     63  48  59 SW13G24   29.66S
$$
MNZ029>031-032-039>041-046>048-054>057-064-291600-
   West Central Minnesota

CITY           SKY/WX    TMP DP  RH WIND       PRES   REMARKS
FERGUS FALLS   SUNNY     70  54  56 W23G31    29.88R
WHEATON        SUNNY     70  52  52 W16G25    29.96R
MORRIS         SUNNY     72  55  56 W22G29    29.94S
ALEXANDRIA     SUNNY     71  52  50 W26G39    29.92R
ELBOW LAKE     FAIR      69  54  58 W26G33    29.92R
WADENA         MOSUNNY   68  54  60 W20G31    29.83S
GLENWOOD       SUNNY     72  54  53 W29G35    29.93S
APPLETON       SUNNY     73  54  49 W17G24    29.97R
BENSON         SUNNY     72  54  53 NW16G22   29.96S
ORTONVILLE     SUNNY     73  52  46 W17       29.98S
MADISON        SUNNY     73  54  49 W15G23    30.00R
WILLMAR        FAIR      72  55  56 W21G33    29.98S
$$
MNZ033>034-036-042>043-049>051-058-059-291600-
   Central Minnesota

CITY           SKY/WX    TMP DP  RH WIND       PRES   REMARKS
ST CLOUD       SUNNY     72  51  47 W25G37    29.89R
SAUK CENTRE    FAIR      69  53  54 W25G41    29.91R
PAYNESVILLE    SUNNY     69  51  51 SW24G32   29.94S
AITKIN         CLOUDY    66  54  63 SW12G22   29.79R
PINE RIVER     CLOUDY    64  54  68 W13G21    29.83R
BRAINERD       CLOUDY    67  52  58 W20G35    29.82R
STAPLES        CLOUDY    66  52  59 W21G26    29.84S
LONG PRAIRIE   FAIR      68  52  56 W18G31    29.90R
LITTLE FALLS   MOSUNNY   70  50  49 W20G35    29.88R
LITCHFIELD     SUNNY     72  55  56 W13G20    29.96S
BUFFALO        SUNNY     71  52  51 SW13G23   29.94S
MAPLE LAKE     SUNNY     72  54  53 SW14G25   29.94R
$$
MNZ037-044-045-052-053-291600-
   East Central Minnesota

CITY           SKY/WX    TMP DP  RH WIND       PRES   REMARKS
PRINCETON      SUNNY     73  54  49 W20G28    29.88S
MORA           SUNNY     70  52  52 W21G31    29.86F
CAMBRIDGE      SUNNY     75  55  50 W15G30    29.87S
RUSH CITY      SUNNY     71  52  51 W16G28    29.87S
MOOSE LAKE     CLOUDY    66  52  59 SW13G23   29.78S
HINCKLEY       FAIR      70  54  56 W20G32    29.84S
CLOQUET        CLOUDY    66  50  55 SW17G24   29.75F
MCGREGOR       CLOUDY    64  52  63 SW14G21   29.79S
$$
MNZ071>073-080-081-089-090-097-098-291600-
   Southwest Minnesota

CITY           SKY/WX    TMP DP  RH WIND       PRES   REMARKS
MONTEVIDEO     SUNNY     75  55  50 NW10G23   30.01R
GRANITE FALLS  SUNNY     72  55  54 W17G23    30.02S
CANBY          SUNNY     72  51  46 W18G24    30.03F
MARSHALL       SUNNY     72  52  49 W16G23    30.05S
REDWOOD FALLS  SUNNY     74  53  48 W15G26    30.01R
OLIVIA         SUNNY     70  52  52 W18G25    29.99S
PIPESTONE      SUNNY     68  55  64 W9        30.10F
WINDOM         SUNNY     72  54  53 SW13G18   30.08S
WORTHINGTON    SUNNY     70  54  56 W14       30.12S
JACKSON        SUNNY     72  55  56 W13G20    30.10S
TRACY          SUNNY     72  55  56 W9G18     30.06S
SLAYTON        SUNNY     69  53  56 W17       30.10F
$$
MNZ065>067-074>077-082>085-091>093-291600-
   South Central Minnesota

CITY           SKY/WX    TMP DP  RH WIND       PRES   REMARKS
MANKATO        SUNNY     72  54  53 W15G24    30.02S
NEW ULM        SUNNY     72  52  49 W18G24    30.02S
ST JAMES       SUNNY     75  55  50 W16G22    30.05F
FAIRMONT       SUNNY     72  54  53 W12       30.07S
GLENCOE        SUNNY     72  57  58 SW13G22   29.97F
FARIBAULT      SUNNY     72  57  60 W12G21    30.00S
OWATONNA       SUNNY     72  55  56 W14G21    30.02S
WASECA         SUNNY     72  59  64 SW16      30.04S
ALBERT LEA     SUNNY     73  54  49 W10G18    30.05S
$$
MNZ078>079-086>088-094>096-291600-
   Southeast Minnesota

CITY           SKY/WX    TMP DP  RH WIND       PRES   REMARKS
ROCHESTER      SUNNY     71  56  58 W12G26    30.02F
RED WING       SUNNY     75  52  43 W15       29.94F
STANTON        SUNNY     74  54  49 W15G21    29.97S
DODGE CENTER   SUNNY     72  54  53 W16       30.02S
WINONA         SUNNY     73  50  43 W12G18    29.98S
AUSTIN         SUNNY     73  52  46 W20       30.04S
PRESTON        SUNNY     72  53  51 W20G26    30.03S
$$
ABBREVIATIONS USED IN REMARKS
   TC - TEMPERATURES IN CELSIUS
  WCI - WIND CHILL INDEX
   HX - HEAT INDEX
  VSB - VISIBILITY
$$



USA.gov is the U.S. government's official web portal to all federal, state and local government web resources and services.